This is the latest recevied weather packets stored in our database for station/object DL6JOE-10. If no packets are shown the sender has not sent any weather packets the latest 10 day(s).
| Time | Temp. | Humidity | Pressure | Rain* | Wind** | Luminosity | Snow |
|---|---|---|---|---|---|---|---|
| 1777507553 | 12.78° C | 31% | 971 hPa | - | - | - | - |
| 1777506652 | 12.78° C | 30% | 970.9 hPa | - | - | - | - |
| 1777505752 | 13.33° C | 30% | 970.8 hPa | - | - | - | - |
| 1777504852 | 13.33° C | 30% | 970.7 hPa | - | - | - | - |
| 1777503952 | 13.89° C | 30% | 970.6 hPa | - | - | - | - |
| 1777503052 | 13.89° C | 30% | 970.6 hPa | - | - | - | - |
| 1777502152 | 13.89° C | 29% | 970.3 hPa | - | - | - | - |
| 1777501252 | 14.44° C | 29% | 970.2 hPa | - | - | - | - |
| 1777500352 | 15° C | 29% | 970.1 hPa | - | - | - | - |
| 1777499452 | 15° C | 29% | 969.9 hPa | - | - | - | - |
| 1777498552 | 15.56° C | 29% | 969.8 hPa | - | - | - | - |
| 1777497652 | 15.56° C | 28% | 969.6 hPa | - | - | - | - |
| 1777496752 | 16.11° C | 28% | 969.5 hPa | - | - | - | - |
| 1777495851 | 16.11° C | 27% | 969.3 hPa | - | - | - | - |
| 1777494951 | 16.67° C | 27% | 969.2 hPa | - | - | - | - |
| 1777494051 | 17.22° C | 27% | 969.1 hPa | - | - | - | - |
| 1777493151 | 17.78° C | 27% | 968.9 hPa | - | - | - | - |
| 1777492251 | 17.78° C | 26% | 968.8 hPa | - | - | - | - |
| 1777491351 | 18.33° C | 26% | 968.6 hPa | - | - | - | - |
| 1777490451 | 18.89° C | 26% | 968.6 hPa | - | - | - | - |
| 1777489551 | 19.44° C | 25% | 968.3 hPa | - | - | - | - |
| 1777488651 | 20° C | 24% | 968 hPa | - | - | - | - |
| 1777487750 | 20.56° C | 24% | 967.8 hPa | - | - | - | - |
| 1777486850 | 21.11° C | 24% | 967.6 hPa | - | - | - | - |
| 1777485950 | 21.67° C | 23% | 967.4 hPa | - | - | - | - |
* Rain since midnight (hover to see other rain measurements)
** Current wind speed in m/s (hover to see current wind gust speed)